GHGSAT-C1 (46278 NORAD) Tracking and Keplerian Element Data

This shows tracking and keplerian element data for the satellite.

Feedback or suggestion? Click here.




ElementValue
Catalog46278
NameGHGSAT-C1
Epoch Orbit1346
Epoch Day335.96584006
Epoch Year2020
RAAN47.5653
Inclination97.456
Eccentricity0.0003618
Argument of Perigee52.93
Mean Anonmoly307.2267
Mean Motion15.16444824
Decay Rate1.524E-05
L11 46278U 20061G 20335.96584006 .00001524 00000-0 81783-4 0 9990
L22 46278 97.4560 47.5653 0003618 52.9300 307.2267 15.16444824 13467

Live tracking and technical data element details for GHGSAT-C1 (NORAD 46278). GHGSAT-C1 can be tracked NOW for your location showing map with azimuth and elevation plus other details from your city location.

Track the satellite on the map from your city or location and see movement details for azimuth, elevation, latitude, longitude, range, height, and movement on the map or in text.







IsCatalogInMostPopularTable: catalog: 46278, numindb: 21
Update: records affected: 1



GetName: 46278 GHGSAT-C1

Hit Count: updated at: Wed, 02 Dec 2020 06:55:52 GMT